| time (UTC) | temp C | wind direction | speed KPH | gust KPH | rain 1hr cm | rain 24hr cm | rain mn cm | humidity % | barometer mb |
| 20260504110708 | 7 | 147 | 0.0 | 1.6 | 0.00 | 0.00 | 0.00 | 75 | 1002.5 |
| 20260504110209 | 7 | 164 | 0.0 | 3.2 | 0.00 | 0.00 | 0.00 | 76 | 1002.7 |
| 20260504100204 | 6 | 155 | 0.0 | 0.0 | 0.00 | 0.00 | 0.00 | 79 | 1002.9 |
| 20260504081634 | 8 | 125 | 0.0 | 1.6 | 0.00 | 0.00 | 0.00 | 68 | 1004.0 |
| 20260504081133 | 8 | 107 | 0.0 | 1.6 | 0.00 | 0.00 | 0.00 | 67 | 1004.0 |
| 20260504080633 | 8 | 101 | 0.0 | 1.6 | 0.00 | 0.00 | 0.00 | 67 | 1004.0 |
| 20260504080131 | 8 | 147 | 0.0 | 0.0 | 0.00 | 0.00 | 0.00 | 66 | 1004.2 |
| 20260504070118 | 9 | 226 | 0.0 | 1.6 | 0.00 | 0.00 | 0.00 | 61 | 1004.6 |
| 20260504050540 | 12 | 164 | 0.0 | 0.0 | 0.00 | 0.00 | 0.00 | 49 | 1006.0 |
| 20260504050257 | 12 | 165 | 0.0 | 0.0 | 0.00 | 0.00 | 0.00 | 50 | 1006.0 |
| 20260504045535 | 11 | 165 | 0.0 | 0.0 | 0.00 | 0.00 | 0.00 | 50 | 1005.9 |
| 20260504044531 | 12 | 165 | 0.0 | 0.0 | 0.00 | 0.00 | 0.00 | 50 | 1006.0 |
| 20260504044032 | 12 | 165 | 0.0 | 0.0 | 0.00 | 0.00 | 0.00 | 50 | 1006.1 |
| 20260504043750 | 12 | 164 | 0.0 | 0.0 | 0.00 | 0.00 | 0.00 | 49 | 1006.0 |
| 20260504043030 | 12 | 164 | 0.0 | 1.6 | 0.00 | 0.00 | 0.00 | 48 | 1006.1 |
| 20260504042528 | 13 | 166 | 0.0 | 1.6 | 0.00 | 0.00 | 0.00 | 46 | 1006.1 |
| 20260504042027 | 13 | 197 | 0.0 | 1.6 | 0.00 | 0.00 | 0.00 | 45 | 1006.2 |
| 20260504041524 | 13 | 247 | 0.0 | 0.0 | 0.00 | 0.00 | 0.00 | 44 | 1006.2 |
| 20260504041022 | 13 | 247 | 0.0 | 0.0 | 0.00 | 0.00 | 0.00 | 43 | 1006.2 |
| 20260504040741 | 14 | 247 | 0.0 | 0.0 | 0.00 | 0.00 | 0.00 | 41 | 1006.2 |
| 20260504040022 | 14 | 247 | 0.0 | 0.0 | 0.00 | 0.00 | 0.00 | 41 | 1006.2 |
| 20260504035520 | 15 | 247 | 0.0 | 0.0 | 0.00 | 0.00 | 0.00 | 40 | 1006.3 |
| 20260504035019 | 15 | 247 | 0.0 | 0.0 | 0.00 | 0.00 | 0.00 | 40 | 1006.3 |
| 20260504034514 | 15 | 247 | 0.0 | 1.6 | 0.00 | 0.00 | 0.00 | 39 | 1006.3 |
| 20260504034232 | 15 | 247 | 0.0 | 1.6 | 0.00 | 0.00 | 0.00 | 39 | 1006.4 |
| 20260504033232 | 15 | 246 | 0.0 | 3.2 | 0.00 | 0.00 | 0.00 | 37 | 1006.5 |
| 20260504032507 | 15 | 249 | 0.0 | 1.6 | 0.00 | 0.00 | 0.00 | 38 | 1006.4 |
| 20260504032005 | 16 | 247 | 0.0 | 1.6 | 0.00 | 0.00 | 0.00 | 37 | 1006.5 |
| 20260504031506 | 16 | 247 | 0.0 | 1.6 | 0.00 | 0.00 | 0.00 | 36 | 1006.5 |
| 20260504031004 | 16 | 247 | 0.0 | 0.0 | 0.00 | 0.00 | 0.00 | 36 | 1006.4 |
| 20260504030504 | 16 | 247 | 0.0 | 0.0 | 0.00 | 0.00 | 0.00 | 36 | 1006.4 |
| 20260504030002 | 16 | 247 | 0.0 | 0.0 | 0.00 | 0.00 | 0.00 | 35 | 1006.4 |
| 20260504025455 | 16 | 247 | 0.0 | 1.6 | 0.00 | 0.00 | 0.00 | 35 | 1006.3 |
| 20260504025206 | 16 | 247 | 0.0 | 3.2 | 0.00 | 0.00 | 0.00 | 35 | 1006.3 |
| 20260504023944 | 17 | 246 | 0.0 | 3.2 | 0.00 | 0.00 | 0.00 | 34 | 1006.1 |
| 20260504023442 | 17 | 247 | 0.0 | 3.2 | 0.00 | 0.00 | 0.00 | 34 | 1006.1 |
| 20260504022942 | 17 | 218 | 0.0 | 3.2 | 0.00 | 0.00 | 0.00 | 33 | 1006.1 |
| 20260504022444 | 17 | 254 | 0.0 | 1.6 | 0.00 | 0.00 | 0.00 | 32 | 1006.0 |
| 20260504021940 | 17 | 254 | 0.0 | 0.0 | 0.00 | 0.00 | 0.00 | 32 | 1005.9 |
| 20260504021440 | 18 | 254 | 0.0 | 0.0 | 0.00 | 0.00 | 0.00 | 32 | 1005.9 |
| 20260504020940 | 18 | 253 | 0.0 | 1.6 | 0.00 | 0.00 | 0.00 | 31 | 1005.9 |
| 20260504020438 | 18 | 253 | 0.0 | 3.2 | 0.00 | 0.00 | 0.00 | 30 | 1005.9 |
| 20260504015936 | 19 | 248 | 0.0 | 3.2 | 0.00 | 0.00 | 0.00 | 30 | 1005.9 |
| 20260504015432 | 19 | 249 | 0.0 | 9.7 | 0.00 | 0.00 | 0.00 | 30 | 1005.8 |
| 20260504014931 | 19 | 245 | 1.6 | 9.7 | 0.00 | 0.00 | 0.00 | 30 | 1005.8 |
| 20260504014433 | 19 | 320 | 0.0 | 4.8 | 0.00 | 0.00 | 0.00 | 30 | 1005.8 |
| 20260504013931 | 19 | 247 | 0.0 | 4.8 | 0.00 | 0.00 | 0.00 | 30 | 1005.8 |
| 20260504013434 | 20 | 247 | 0.0 | 4.8 | 0.00 | 0.00 | 0.00 | 30 | 1005.8 |
| 20260504013200 | 20 | 272 | 0.0 | 4.8 | 0.00 | 0.00 | 0.00 | 29 | 1005.8 |
| 20260504012431 | 20 | 271 | 1.6 | 6.4 | 0.00 | 0.00 | 0.00 | 28 | 1005.7 |
| 20260504011932 | 20 | 267 | 1.6 | 6.4 | 0.00 | 0.00 | 0.00 | 28 | 1005.7 |
| 20260504011432 | 21 | 276 | 1.6 | 4.8 | 0.00 | 0.00 | 0.00 | 28 | 1005.6 |
| 20260504011150 | 21 | 269 | 1.6 | 4.8 | 0.00 | 0.00 | 0.00 | 28 | 1005.6 |
| 20260504010431 | 21 | 291 | 1.6 | 6.4 | 0.00 | 0.00 | 0.00 | 27 | 1005.5 |
| 20260504010152 | 21 | 249 | 3.2 | 9.7 | 0.00 | 0.00 | 0.00 | 27 | 1005.3 |
| 20260504005431 | 22 | 227 | 3.2 | 11.3 | 0.00 | 0.00 | 0.00 | 26 | 1005.5 |
| 20260504004932 | 22 | 237 | 3.2 | 11.3 | 0.00 | 0.00 | 0.00 | 26 | 1005.5 |
| 20260504004431 | 22 | 246 | 3.2 | 8.0 | 0.00 | 0.00 | 0.00 | 26 | 1005.3 |
| 20260504004155 | 22 | 257 | 3.2 | 8.0 | 0.00 | 0.00 | 0.00 | 25 | 1005.3 |
| 20260504003433 | 22 | 236 | 3.2 | 12.9 | 0.00 | 0.00 | 0.00 | 25 | 1005.3 |
| 20260504003156 | 23 | 228 | 3.2 | 12.9 | 0.00 | 0.00 | 0.00 | 24 | 1005.5 |
| 20260504002435 | 23 | 261 | 3.2 | 9.7 | 0.00 | 0.00 | 0.00 | 24 | 1005.3 |
| 20260504001932 | 23 | 297 | 4.8 | 17.7 | 0.00 | 0.00 | 0.00 | 24 | 1005.3 |
| 20260504001433 | 23 | 230 | 6.4 | 17.7 | 0.00 | 0.00 | 0.00 | 23 | 1005.3 |
| 20260504000932 | 23 | 303 | 6.4 | 16.1 | 0.00 | 0.00 | 0.00 | 23 | 1005.2 |
| 20260504000657 | 23 | 230 | 4.8 | 14.5 | 0.00 | 0.00 | 0.00 | 23 | 1005.3 |
| 20260503235933 | 23 | 342 | 6.4 | 17.7 | 0.00 | 0.00 | 0.00 | 23 | 1005.2 |
| 20260503235434 | 23 | 246 | 6.4 | 17.7 | 0.00 | 0.00 | 0.00 | 23 | 1005.1 |
| 20260503234934 | 23 | 264 | 6.4 | 17.7 | 0.00 | 0.00 | 0.00 | 24 | 1005.1 |
| 20260503234433 | 23 | 312 | 6.4 | 19.3 | 0.00 | 0.00 | 0.00 | 24 | 1005.1 |
| 20260503233931 | 24 | 227 | 6.4 | 19.3 | 0.00 | 0.00 | 0.00 | 24 | 1005.1 |
| 20260503233432 | 24 | 303 | 8.0 | 22.5 | 0.00 | 0.00 | 0.00 | 23 | 1005.1 |
| 20260503232932 | 24 | 311 | 8.0 | 22.5 | 0.00 | 0.00 | 0.00 | 24 | 1005.1 |
| 20260503232432 | 24 | 285 | 6.4 | 22.5 | 0.00 | 0.00 | 0.00 | 25 | 1005.0 |
| 20260503231934 | 24 | 294 | 4.8 | 14.5 | 0.00 | 0.00 | 0.00 | 24 | 1005.0 |
| 20260503231432 | 24 | 275 | 6.4 | 19.3 | 0.00 | 0.00 | 0.00 | 25 | 1005.0 |
| 20260503230932 | 24 | 242 | 4.8 | 19.3 | 0.00 | 0.00 | 0.00 | 24 | 1005.0 |
| 20260503230432 | 24 | 218 | 4.8 | 16.1 | 0.00 | 0.00 | 0.00 | 24 | 1005.1 |
| 20260503230156 | 24 | 332 | 6.4 | 14.5 | 0.00 | 0.00 | 0.00 | 25 | 1005.1 |
| 20260503225430 | 24 | 297 | 8.0 | 24.1 | 0.00 | 0.00 | 0.00 | 25 | 1005.1 |
| 20260503224930 | 24 | 250 | 6.4 | 24.1 | 0.00 | 0.00 | 0.00 | 24 | 1005.1 |
| 20260503224430 | 24 | 231 | 4.8 | 19.3 | 0.00 | 0.00 | 0.00 | 24 | 1005.1 |
| 20260503223927 | 24 | 308 | 8.0 | 25.7 | 0.00 | 0.00 | 0.00 | 24 | 1005.0 |
| 20260503223428 | 24 | 258 | 8.0 | 25.7 | 0.00 | 0.00 | 0.00 | 25 | 1005.0 |
| 20260503222927 | 24 | 283 | 9.7 | 22.5 | 0.00 | 0.00 | 0.00 | 26 | 1004.9 |
| 20260503222652 | 24 | 342 | 9.7 | 22.5 | 0.00 | 0.00 | 0.00 | 25 | 1005.1 |
| 20260503221929 | 24 | 303 | 8.0 | 22.5 | 0.00 | 0.00 | 0.00 | 25 | 1005.0 |
| 20260503221424 | 24 | 275 | 4.8 | 17.7 | 0.00 | 0.00 | 0.00 | 24 | 1005.0 |
| 20260503220917 | 24 | 268 | 4.8 | 12.9 | 0.00 | 0.00 | 0.00 | 34 | 1005.0 |
| 20260503220413 | 24 | 268 | 4.8 | 17.7 | 0.00 | 0.00 | 0.00 | 34 | 1005.0 |
| 20260503215913 | 24 | 133 | 8.0 | 22.5 | 0.00 | 0.00 | 0.00 | 35 | 1004.9 |
| 20260503215413 | 24 | 236 | 8.0 | 22.5 | 0.00 | 0.00 | 0.00 | 35 | 1004.9 |
| 20260503214912 | 24 | 233 | 4.8 | 17.7 | 0.00 | 0.00 | 0.00 | 35 | 1004.9 |
| 20260503214411 | 24 | 219 | 6.4 | 20.9 | 0.00 | 0.00 | 0.00 | 37 | 1004.9 |
| 20260503213911 | 23 | 240 | 6.4 | 20.9 | 0.00 | 0.00 | 0.00 | 35 | 1005.0 |
| 20260503213637 | 23 | 253 | 4.8 | 19.3 | 0.00 | 0.00 | 0.00 | 36 | 1005.1 |
| 20260503212908 | 23 | 242 | 6.4 | 19.3 | 0.00 | 0.00 | 0.00 | 36 | 1005.1 |
| 20260503212410 | 23 | 317 | 8.0 | 22.5 | 0.00 | 0.00 | 0.00 | 37 | 1005.1 |
| 20260503211907 | 23 | 247 | 8.0 | 22.5 | 0.00 | 0.00 | 0.00 | 38 | 1005.1 |
| 20260503211405 | 23 | 100 | 8.0 | 19.3 | 0.00 | 0.00 | 0.00 | 37 | 1005.3 |
| 20260503210908 | 23 | 268 | 8.0 | 27.4 | 0.00 | 0.00 | 0.00 | 37 | 1005.3 |
| 20260503210407 | 23 | 105 | 8.0 | 27.4 | 0.00 | 0.00 | 0.00 | 40 | 1005.5 |
| 20260503205904 | 23 | 235 | 8.0 | 22.5 | 0.00 | 0.00 | 0.00 | 39 | 1005.6 |
| 20260503205404 | 23 | 270 | 8.0 | 22.5 | 0.00 | 0.00 | 0.00 | 39 | 1005.6 |
| 20260503204907 | 23 | 297 | 6.4 | 20.9 | 0.00 | 0.00 | 0.00 | 39 | 1005.7 |
| 20260503204630 | 23 | 159 | 6.4 | 19.3 | 0.00 | 0.00 | 0.00 | 37 | 1005.7 |
| 20260503204131 | 23 | 330 | 9.7 | 25.7 | 0.00 | 0.00 | 0.00 | 30 | 1005.9 |
| 20260503202905 | 23 | 296 | 11.3 | 24.1 | 0.00 | 0.00 | 0.00 | 28 | 1005.7 |
| 20260503202404 | 24 | 268 | 9.7 | 20.9 | 0.00 | 0.00 | 0.00 | 27 | 1005.6 |
| 20260503201904 | 24 | 40 | 9.7 | 22.5 | 0.00 | 0.00 | 0.00 | 29 | 1005.6 |
| 20260503201403 | 24 | 261 | 8.0 | 22.5 | 0.00 | 0.00 | 0.00 | 28 | 1005.6 |
| 20260503200904 | 24 | 277 | 6.4 | 20.9 | 0.00 | 0.00 | 0.00 | 28 | 1005.6 |
| 20260503200406 | 23 | 347 | 8.0 | 19.3 | 0.00 | 0.00 | 0.00 | 32 | 1005.7 |
| 20260503195904 | 23 | 251 | 8.0 | 22.5 | 0.00 | 0.00 | 0.00 | 34 | 1005.7 |
| 20260503195406 | 23 | 237 | 8.0 | 22.5 | 0.00 | 0.00 | 0.00 | 32 | 1005.7 |
| 20260503194904 | 23 | 301 | 6.4 | 19.3 | 0.00 | 0.00 | 0.00 | 32 | 1005.6 |
| 20260503194403 | 23 | 294 | 4.8 | 19.3 | 0.00 | 0.00 | 0.00 | 34 | 1005.9 |
| 20260503193904 | 23 | 138 | 6.4 | 20.9 | 0.00 | 0.00 | 0.00 | 34 | 1005.9 |
| 20260503193403 | 23 | 145 | 6.4 | 20.9 | 0.00 | 0.00 | 0.00 | 35 | 1006.1 |
| 20260503193130 | 23 | 261 | 6.4 | 19.3 | 0.00 | 0.00 | 0.00 | 35 | 1006.1 |
| 20260503192404 | 23 | 262 | 4.8 | 19.3 | 0.00 | 0.00 | 0.00 | 33 | 1006.2 |
| 20260503191903 | 23 | 216 | 4.8 | 17.7 | 0.00 | 0.00 | 0.00 | 36 | 1006.2 |
| 20260503191631 | 22 | 303 | 6.4 | 19.3 | 0.00 | 0.00 | 0.00 | 35 | 1006.2 |
| 20260503190855 | 22 | 207 | 6.4 | 19.3 | 0.00 | 0.00 | 0.00 | 36 | 1006.3 |
| 20260503190350 | 22 | 166 | 6.4 | 16.1 | 0.00 | 0.00 | 0.00 | 36 | 1006.4 |
| 20260503185844 | 22 | 216 | 6.4 | 16.1 | 0.00 | 0.00 | 0.00 | 37 | 1006.6 |
| 20260503185343 | 22 | 260 | 6.4 | 20.9 | 0.00 | 0.00 | 0.00 | 37 | 1006.5 |
| 20260503184843 | 22 | 298 | 8.0 | 20.9 | 0.00 | 0.00 | 0.00 | 36 | 1006.7 |
| 20260503184343 | 22 | 247 | 8.0 | 20.9 | 0.00 | 0.00 | 0.00 | 36 | 1006.7 |
| 20260503183843 | 22 | 116 | 6.4 | 20.9 | 0.00 | 0.00 | 0.00 | 37 | 1006.7 |
| 20260503183343 | 22 | 301 | 4.8 | 17.7 | 0.00 | 0.00 | 0.00 | 39 | 1006.7 |
| 20260503182844 | 22 | 221 | 4.8 | 17.7 | 0.00 | 0.00 | 0.00 | 39 | 1006.8 |
| 20260503182344 | 21 | 331 | 6.4 | 19.3 | 0.00 | 0.00 | 0.00 | 37 | 1006.8 |
| 20260503181844 | 21 | 152 | 6.4 | 19.3 | 0.00 | 0.00 | 0.00 | 39 | 1006.9 |
| 20260503181343 | 21 | 319 | 6.4 | 19.3 | 0.00 | 0.00 | 0.00 | 37 | 1007.0 |
| 20260503180843 | 21 | 190 | 6.4 | 19.3 | 0.00 | 0.00 | 0.00 | 38 | 1007.1 |
| 20260503180343 | 21 | 263 | 6.4 | 17.7 | 0.00 | 0.00 | 0.00 | 39 | 1007.2 |
| 20260503175842 | 21 | 249 | 6.4 | 19.3 | 0.00 | 0.00 | 0.00 | 40 | 1007.3 |
| 20260503175342 | 20 | 204 | 6.4 | 22.5 | 0.00 | 0.00 | 0.00 | 39 | 1007.3 |
| 20260503174841 | 20 | 219 | 6.4 | 27.4 | 0.00 | 0.00 | 0.00 | 40 | 1007.4 |
| 20260503174341 | 20 | 274 | 8.0 | 27.4 | 0.00 | 0.00 | 0.00 | 38 | 1007.4 |
| 20260503173841 | 20 | 157 | 8.0 | 19.3 | 0.00 | 0.00 | 0.00 | 40 | 1007.6 |
| 20260503173341 | 20 | 71 | 6.4 | 19.3 | 0.00 | 0.00 | 0.00 | 39 | 1007.6 |
| 20260503172841 | 20 | 156 | 6.4 | 19.3 | 0.00 | 0.00 | 0.00 | 40 | 1007.6 |
| 20260503172342 | 19 | 275 | 6.4 | 19.3 | 0.00 | 0.00 | 0.00 | 40 | 1007.6 |
| 20260503171843 | 19 | 265 | 6.4 | 17.7 | 0.00 | 0.00 | 0.00 | 39 | 1007.7 |
| 20260503171341 | 19 | 265 | 6.4 | 17.7 | 0.00 | 0.00 | 0.00 | 40 | 1007.7 |
| 20260503170841 | 19 | 285 | 6.4 | 27.4 | 0.00 | 0.00 | 0.00 | 41 | 1007.7 |
| 20260503170341 | 19 | 81 | 6.4 | 27.4 | 0.00 | 0.00 | 0.00 | 40 | 1007.7 |
| 20260503150751 | 15 | 144 | 6.4 | 17.7 | 0.00 | 0.00 | 0.00 | 46 | 1009.4 |
| 20260503150244 | 15 | 131 | 6.4 | 17.7 | 0.00 | 0.00 | 0.00 | 48 | 1009.6 |
| 20260503140241 | 11 | 176 | 8.0 | 14.5 | 0.00 | 0.00 | 0.00 | 59 | 1010.4 |
| 20260503131233 | 10 | 191 | 4.8 | 12.9 | 0.00 | 0.00 | 0.00 | 58 | 1011.2 |
| 20260503130952 | 10 | 188 | 3.2 | 11.3 | 0.00 | 0.00 | 0.00 | 56 | 1011.4 |
| 20260503130454 | 11 | 218 | 4.8 | 11.3 | 0.00 | 0.00 | 0.00 | 54 | 1011.6 |